Regional Weather Roundup
Issued by NWS

Home | Current Version | Previous Version | Graphics & Text | Print | Product List | Glossary On
Versions: 1 2 3 4 5 6 7 8 9 10 11 12 13 14 15 16 17 18 19 20 21 22 23 24 25 26 27 28 29 30 31 32 33 34 35 36 37 38 39 40 41 42 43 44 45 46 47 48 49 50
000
ASUS43 KMPX 252001
RWRMN
WEATHER ROUNDUP FOR MINNESOTA
NATIONAL WEATHER SERVICE TWIN CITIES/CHANHASSEN MN
300 PM CDT MON JUL 25 2016


NOTE: "FAIR" INDICATES FEW OR NO CLOUDS BELOW 12,000 FEET WITH NO
SIGNIFICANT WEATHER AND/OR OBSTRUCTIONS TO VISIBILITY. N/A MEANS
CURRENT SKY AND/OR WEATHER CONDITIONS ARE NOT AVAILABLE.

MNZ060>063-068>070-252100-
   Twin Cities Metro

CITY           SKY/WX    TMP DP  RH WIND       PRES   REMARKS
TWIN CITIES    MOSUNNY   85  59  41 NW9       30.05S
ST PAUL        SUNNY     85  61  44 NW10      30.04F
CRYSTAL        MOSUNNY   84  59  42 VRB7G16   30.04S
BLAINE         MOSUNNY   86  59  39 W8G14     30.05S
LAKEVILLE      SUNNY     82  63  51 W6        30.06F
EDEN PRAIRIE   SUNNY     86  61  42 NW9       30.05F
LAKEVILLE      SUNNY     82  63  51 W6        30.06F
SOUTH ST PAUL  MOSUNNY   85  56  36 W8        30.04F
LAKE ELMO      FAIR      82  64  54 NW10G16   30.06F
$$
MNZ001>005-007-008-013>017-022>024-027-028-252100-
   Northwest Minnesota

CITY           SKY/WX    TMP DP  RH WIND       PRES   REMARKS
HALLOCK        SUNNY     82  63  51 W5        29.96F
ROSEAU         SUNNY     81  66  61 W5        29.98F
WARROAD        SUNNY     79  64  61 W7        29.98S
THIEF RVR FALL SUNNY     81  63  54 SW7       30.00F
CROOKSTON      SUNNY     84  64  51 S8        29.98F
FOSSTON        SUNNY     81  63  54 SW9       30.02F
DETROIT LAKES  SUNNY     82  61  47 SW9       30.05S
MOORHEAD       SUNNY     88  63  42 S9        30.00F
PARK RAPIDS    SUNNY     85  60  42 W10       30.03F
MAHNOMEN       FAIR      83  62  50 W10       30.02S
$$
MNZ006-009>011-018-025>026-252100-
   North Central Minnesota

CITY           SKY/WX    TMP DP  RH WIND       PRES   REMARKS
BAUDETTE       SUNNY     82  59  45 W12G18    29.98S
FLAG ISLAND    SUNNY     79  57  47 NW9       29.95S
INTL FALLS     MOSUNNY   82  62  50 VRB7      29.97F
WASKISH        SUNNY     81  64  57 SW12      30.00S
BIG FORK       SUNNY     82  57  42 W6        30.01S
LONGVILLE      SUNNY     82  63  51 W6        30.02F
GRAND RAPIDS   MOSUNNY   81  61  50 NW9       30.03F
ORR            PTSUNNY   79  57  47 CALM      29.97S
COOK           MOSUNNY   81  61  50 W8        30.00F
WALKER         FAIR      81  61  49 W8        30.02F
$$
MNZ012-019>021-037-252100-
   Northeast Minnesota

CITY           SKY/WX    TMP DP  RH WIND       PRES   REMARKS
DULUTH         MOSUNNY   82  59  45 W14       30.01F
ELY            MOSUNNY   79  57  47 W8        30.00S
HIBBING        MOSUNNY   79  58  48 NW10      30.01F
EVELETH        SUNNY     79  56  46 NW9       30.02F
DULUTH HARBOR  MOSUNNY   84  61  45 W10       29.98F
TWO HARBORS    SUNNY     84  64  51 NW7       29.97S
SILVER BAY     MOSUNNY   84  61  45 W5        29.96S
GRAND MARAIS     N/A     83  49  30 VRB5      29.93R
G MARAIS ARPRT MOSUNNY   75  54  46 W8G17     29.99S
$$
MNZ029>031-032-039>041-046>048-054>057-064-252100-
   West Central Minnesota

CITY           SKY/WX    TMP DP  RH WIND       PRES   REMARKS
FERGUS FALLS   SUNNY     82  66  57 S8        30.04F
WHEATON        SUNNY     88  64  45 S9        30.04F
MORRIS         SUNNY     88  64  45 SW10      30.04F
ALEXANDRIA     SUNNY     83  62  49 SW10      30.08F
ELBOW LAKE     FAIR      83  67  58 W9        30.05F
WADENA         SUNNY     81  63  54 W8        30.05S
GLENWOOD       SUNNY     84  63  48 SW7       30.08S
APPLETON       SUNNY     86  63  45 S6G16     30.04F
BENSON         SUNNY     84  63  48 SW9       30.06S
ORTONVILLE     SUNNY     88  61  40 S8        30.04S
MADISON        SUNNY     84  64  51 S12       30.05F
WILLMAR        FAIR      82  66  57 SW6       30.09S
$$
MNZ033>034-036-042>043-049>051-058-059-252100-
   Central Minnesota

CITY           SKY/WX    TMP DP  RH WIND       PRES   REMARKS
ST CLOUD       SUNNY     83  63  50 SW13      30.05F
SAUK CENTRE    FAIR      82  62  49 W8        30.07S
PAYNESVILLE    SUNNY     82  63  52 W9        30.07F
AITKIN         SUNNY     84  55  37 W6        30.02F
PINE RIVER     SUNNY     82  63  51 NW10      30.06F
BRAINERD       SUNNY     83  59  44 NW9       30.04F
STAPLES        SUNNY     84  57  39 W12       30.05S
LONG PRAIRIE   FAIR      82  63  51 S7        30.07S
LITTLE FALLS   SUNNY     82  55  39 W8        30.05F
LITCHFIELD     SUNNY     82  64  54 CALM      30.07F
BUFFALO        SUNNY     82  60  46 W7        30.07S
MAPLE LAKE     SUNNY     83  63  50 W5        30.07F
HUTCHINSON     SUNNY     83  67  57 SW5       30.09F
$$
MNZ037-044-045-052-053-252100-
   East Central Minnesota

CITY           SKY/WX    TMP DP  RH WIND       PRES   REMARKS
PRINCETON      SUNNY     84  63  48 W10       30.05F
MORA           SUNNY     79  59  50 W7G16     30.06S
CAMBRIDGE      SUNNY     84  64  51 W12       30.03F
RUSH CITY      MOSUNNY   83  63  51 W5        30.04F
MOOSE LAKE     MOSUNNY   81  61  50 NW7       30.01S
HINCKLEY       FAIR      81  63  54 W7        30.04S
CLOQUET        SUNNY     82  54  36 NW10      30.02S
MCGREGOR       SUNNY     81  61  50 W9        30.03F
$$
MNZ071>073-080-081-089-090-097-098-252100-
   Southwest Minnesota

CITY           SKY/WX    TMP DP  RH WIND       PRES   REMARKS
MONTEVIDEO     SUNNY     84  66  54 W8        30.08F
GRANITE FALLS  SUNNY     86  68  55 S9        30.09F
CANBY          SUNNY     86  59  40 SW8G16    30.08F
REDWOOD FALLS  SUNNY     84  62  47 SW9       30.08F
OLIVIA         SUNNY     82  63  51 SW6       30.08F
PIPESTONE      SUNNY     82  61  47 SW8       30.12F
WINDOM         SUNNY     84  61  45 W7        30.11F
WORTHINGTON    SUNNY     82  63  52 MISG      30.12F
JACKSON        SUNNY     82  59  44 SW7       30.12S
TRACY          SUNNY     84  66  54 W6        30.10F
SLAYTON        SUNNY     83  62  48 SW9       30.12F HAZE
$$
MNZ065>067-074>077-082>085-091>093-252100-
   South Central Minnesota

CITY           SKY/WX    TMP DP  RH WIND       PRES   REMARKS
MANKATO        SUNNY     82  63  51 W9        30.08F
NEW ULM        SUNNY     82  61  47 W7        30.08F
ST JAMES       SUNNY     79  57  47 CALM      30.09F
FAIRMONT       SUNNY     84  63  48 W5        30.09F
GLENCOE        MOSUNNY   84  66  54 W6        30.07F
FARIBAULT      SUNNY     82  64  54 W5        30.08F
OWATONNA       SUNNY     82  63  51 NW8       30.08F
WASECA         SUNNY     79  63  57 NW8       30.10S
ALBERT LEA     SUNNY     81  61  50 NW7       30.08F
$$
MNZ078>079-086>088-094>096-252100-
   Southeast Minnesota

CITY           SKY/WX    TMP DP  RH WIND       PRES   REMARKS
ROCHESTER      SUNNY     82  63  52 NW8       30.08F
RED WING       SUNNY     84  55  37 NW3G9     30.03F
STANTON        SUNNY     82  63  51 W6        30.05F
DODGE CENTER   SUNNY     82  63  51 W8        30.08F
WINONA         SUNNY     82  61  47 NW10      30.04F
AUSTIN         SUNNY     81  61  50 NW8       30.08S
PRESTON        SUNNY     80  60  50 NW9       30.08S
$$
ABBREVIATIONS USED IN REMARKS
   TC - TEMPERATURES IN CELSIUS
  WCI - WIND CHILL INDEX
   HX - HEAT INDEX
  VSB - VISIBILITY
$$




USA.gov is the U.S. government's official web portal to all federal, state and local government web resources and services.